Miscellaneous Local Product
Issued by NWS Hastings, NE

Home | Current Version | Previous Version | Graphics & Text | Print | Product List | Glossary On
Versions: 1 2 3 4 5 6 7 8 9 10 11 12 13 14 15 16 17 18 19 20 21 22 23 24 25 26 27 28 29 30 31 32 33 34 35 36 37 38 39 40 41 42 43 44 45 46 47 48 49 50
000
AXUS43 KGID 312202
MISGRI

GID CWA HOURLY WEATHER ROUNDUP
NATIONAL WEATHER SERVICE HASTINGS NE
500 PM CDT TUE MAY 31 2016

NOTE: "FAIR" INDICATES FEW OR NO CLOUDS BELOW 12,000 FEET WITH NO
SIGNIFICANT WEATHER AND/OR OBSTRUCTIONS TO VISIBILITY.

...SOUTH CENTRAL NEBRASKA...

CITY           SKY/WX    TMP DP  RH WIND       PRES   REMARKS
GRAND ISLAND   PTSUNNY   73  43  33 NW7       29.96F
HASTINGS       SUNNY     73  43  33 N10       29.96F
KEARNEY        MOSUNNY   73  45  35 N12       29.98S
ORD            PTSUNNY   72  40  31 W10       29.94F
YORK           CLOUDY    73  48  40 N9        29.95F
AURORA         SUNNY     73  41  31 N10       29.96S
LEXINGTON      SUNNY     71  49  45 NW5       29.98F
HOLDREGE       SUNNY     71  42  34 N5        29.98F
HEBRON         MOSUNNY   74  55  52 N8        29.94F

...NEBRASKA PANHANDLE...

CITY           SKY/WX    TMP DP  RH WIND       PRES   REMARKS
CHADRON        MOSUNNY   71  33  24 NW26G38   30.01S
ALLIANCE       CLOUDY    68  33  27 NW17G25   30.00F
SCOTTSBLUFF    PTSUNNY   73  38  27 NW13      30.03F
SIDNEY         SUNNY     64  42  44 SW6       30.07F

...WESTERN AND NORTH CENTRAL NEBRASKA...

CITY           SKY/WX    TMP DP  RH WIND       PRES   REMARKS
VALENTINE      SUNNY     73  33  23 W25G37    29.92F
AINSWORTH      SUNNY     73  36  26 W24G31    29.93F
ONEILL         SUNNY     74  44  35 SW12G21   29.92F
BROKEN BOW     MOSUNNY   70  46  42 W14       29.97F
IMPERIAL       SUNNY     69  45  41 NW6       30.02F
NORTH PLATTE   SUNNY     68  46  45 NW12      30.01F
MCCOOK         CLOUDY    72  48  42 N9        30.00F

...EASTERN NEBRASKA...

CITY           SKY/WX    TMP DP  RH WIND       PRES   REMARKS
NORFOLK        CLOUDY    74  43  32 W9        29.91F
SO SIOUX CITY  CLOUDY    76  46  34 N8        29.90F
TEKAMAH        SUNNY     78  47  33 N7        29.90F
COLUMBUS       CLOUDY    75  43  31 NW9       29.94S
ALBION         SUNNY     74  43  32 NW7       29.93F
OMAHA EPPLEY   MOSUNNY   77  56  48 N7        29.90F
OFFUTT AFB     PTSUNNY   76  59  56 VRB7      29.90F
MILLARD        MOSUNNY   75  55  49 NW6       29.91S
LINCOLN        SUNNY     77  52  41 N8        29.93F
NEBRASKA CITY  CLOUDY    74  59  58 N9        29.91F
BEATRICE       PTSUNNY   74  56  53 N9G16     29.93S
FALLS CITY     MOSUNNY   77  60  55 N9G17     29.89S

...NORTHERN KANSAS...

CITY           SKY/WX    TMP DP  RH WIND       PRES   REMARKS
GOODLAND       MOSUNNY   68  46  45 NE7       30.02F
HILL CITY      SUNNY     75  52  44 NE10      29.97F
NORTON         CLEAR     73  39  29 NE5       29.98S
PHILLIPSBURG   SUNNY     75  52  43 NE5       29.96F
SMITH CENTER   MOSUNNY   73  55  53 NE7       29.96S
BELOIT         SUNNY     72  54  53 NE7       29.94S
HAYS           CLOUDY    73  55  53 NE13      29.96F
RUSSELL        PTSUNNY   71  59  65 NE9       29.94F
CONCORDIA      MOSUNNY   74  59  59 N8        29.94F
SALINA         PTSUNNY   76  60  57 NE6       29.93F
TOPEKA           N/A     79  61  53 CALM      29.89F



USA.gov is the U.S. government's official web portal to all federal, state and local government web resources and services.